EUTE 172B

Satellite information

Favourite Embed

Satellite Type and Status

PAYLOADIN ORBIT

Key statistics

Satellite EUTE 172B at a glance.

Uptime

3079

Days in orbit

Revolutions

≈ 1.0

Per day

Orbit

GEO

Geostationary Orbit

Inclination

0.0

Latest

Satellite identification and parameters

Extended collection of information and parameters for EUTE 172B.

Object identification

Identified? True

Debris? False

Object name: EUTE 172B

International designator: 2017-029B

Object number (NORAD): 42741

Object ID (CCSDS): 42741

Country: EUROPEAN TELECOMMUNICATIONS SATELLITE ORGANIZATION (EUTELSAT) (EUTE)

Current information (Y/N): Y

RCS size: LARGE

Orbital parameters

Period: 1436.099 minutes

Inclination: 0.023 deg

SMA: 42164.775 km

Apoapsis: 35786.864 km

Periapsis: 35786.417 km

RAAN: 174.264 deg

Eccentricy: 0.0000053

Argument of periapsis: 54.9541 deg

Mean anomaly: 206.0661 deg

Mean motion: 1.00271631 rev/day

Mean motion (dot): 0.00000007 rev/day2

B* drag term: 0.0 1/REarth

Two-line elements (TLE)

Creation date: Nov. 4, 2025, 11:56 p.m.

Reference frame: TEME

Reference center: EARTH

Epoch: Nov. 4, 2025, 2:36 p.m. UTC

TLE line 0: 0 EUTE 172B

TLE line 1: 1 42741U 17029B 25308.60878229 .00000007 00000-0 00000+0 0 9993

TLE line 2: 2 42741 0.0230 174.2640 0000053 54.9541 206.0661 1.00271631 31472

Live tracking on map

Real-time ground track for satellite EUTE 172B.

In-orbit conjunctions

There are no conjunctions computed for EUTE 172B, at the moment. Check back to stay up to date, as we update our databases every day.

Go to all conjunctions

Associated space launch

ViaSat-2 is a commercial communications satellite with an estimated capacity of 350 Gbit/s. The satellite will provide satellite internet to North America, parts of South America, the Caribbean, and the Atlantic Ocean. Eutelsat 172B is a communications satellite featuring a C-band, a Ku-band and a high throughput payload and all electric orbital raising. It is to reside in 172° East, where it will provide coverage of the Asia-Pacific.

EUTE 172B was lifted into orbit during the mission ‘Ariane 5 ECA | ViaSat-2 & EUTELSAT 172B’, on board a Ariane 5 ECA space rocket.

The launch took place on June 1, 2017, 11:45 p.m. from Ariane Launch Area 3.

For more information about the launch, click the button.

Launch to space Ariane 5 ECA | ViaSat-2 & EUTELSAT 172B
Ariane 5 ECA | ViaSat-2 & EUTELSAT 172B

Agency: Eutelsat

Status: Launch Successful

Launch date: June 1, 2017, 11:45 p.m. UTC

Rocket: Ariane 5 ECA

Launch pad: Ariane Launch Area 3

Location: Guiana Space Centre, French Guiana

...

Latest news about this satellite

There are no fresh news available about this satellite. Check back as we update our databases every day.


Newsletter sign-up

Weekly statistics, charts and insights to help you stay on top of the space industry.